Regional Weather Roundup
Issued by NWS Little Rock, AR

Home | Current Version | Previous Version | Graphics & Text | Print | Product List | Glossary On
Versions: 1 2 3 4 5 6 7 8 9 10 11 12 13 14 15 16 17 18 19 20 21 22 23 24 25 26 27 28 29 30 31 32 33 34 35 36 37 38 39 40 41 42 43 44 45 46 47 48 49 50
000
ASUS44 KLZK 101805
RWRLZK

WEATHER ROUNDUP FOR ARKANSAS
NATIONAL WEATHER SERVICE LITTLE ROCK AR
100 PM CDT THU JUL 10 2014

NOTE: "FAIR" INDICATES FEW OR NO CLOUDS BELOW 12,000 FEET WITH NO
SIGNIFICANT WEATHER AND/OR OBSTRUCTIONS TO VISIBILITY.

ARZ001-003-010-029-101900-
NORTHWEST ARKANSAS

CITY           SKY/WX    TMP DP  RH WIND       PRES   REMARKS
FAYETTEVILLE   LGT RAIN  67  66  97 SE7       30.10F
6HR MIN TEMP:  65; 6HR MAX TEMP:  77; 6HR PCP:  0.33;

FORT SMITH     CLOUDY    72  69  90 E13       30.07F
6HR MIN TEMP:  71; 6HR MAX TEMP:  84; 6HR PCP:  0.27;

HARRISON       CLOUDY    80  66  62 S6        30.13S
6HR MIN TEMP:  63; 6HR MAX TEMP:  83;

BENTONVILLE    CLOUDY    72  68  88 SE8       30.10F
6HR MIN TEMP:  66; 6HR MAX TEMP:  73; 6HR PCP:  0.14;

ROGERS         CLOUDY    71  69  93 SE6       30.11F
6HR MIN TEMP:  69; 6HR MAX TEMP:  72; 6HR PCP:  0.13;

SILOAM SPGS    CLOUDY    68  61  77 SE9       30.08F
6HR MIN TEMP:  64; 6HR MAX TEMP:  72; 6HR PCP:  0.57;

HIGHFILL       CLOUDY    70  70 100 SE8       30.08F THUNDER
6HR MIN TEMP:  65; 6HR MAX TEMP:  73; 6HR PCP:  0.18;

SPRINGDALE     PTSUNNY   70  66  88 SE8       30.11F
$$

ARZ004-005-016-101900-
NORTH CENTRAL ARKANSAS

CITY           SKY/WX    TMP DP  RH WIND       PRES   REMARKS
BATESVILLE     PTSUNNY   86  70  58 SE5       30.09F HX  90
6HR MIN TEMP:  64; 6HR MAX TEMP:  86;

FLIPPIN        CLOUDY    82  66  57 SE5       30.11F HX  85
6HR MIN TEMP:  61; 6HR MAX TEMP:  82;

MTN HOME       CLOUDY    82  67  60 SE6       30.10F
6HR MIN TEMP:  64; 6HR MAX TEMP:  82;

$$

ARZ040-041-101900-
WEST CENTRAL ARKANSAS

CITY           SKY/WX    TMP DP  RH WIND       PRES   REMARKS
MENA           CLOUDY    82  72  69 CALM      30.10F HX  87
MOUNT IDA      PTSUNNY   85  73  67 CALM      30.05F HX  91
6HR MIN TEMP:  70; 6HR MAX TEMP:  86;

$$

ARZ009-017-025-026-028-101900-
NORTHEAST ARKANSAS

CITY           SKY/WX    TMP DP  RH WIND       PRES   REMARKS
CORNING        LGT RAIN  82  68  61 N3        30.11F HX  85
JONESBORO      PTSUNNY   84  64  50 CALM      30.10F HX  85
6HR MIN TEMP:  68; 6HR MAX TEMP:  85;

NEWPORT        PTSUNNY   85  69  58 NE5       30.11F HX  89
6HR MIN TEMP:  69; 6HR MAX TEMP:  86;

WALNUT RIDGE   CLOUDY    82  66  57 E3        30.10F HX  85
6HR MIN TEMP:  66; 6HR MAX TEMP:  82;

BLYTHEVILLE    PTSUNNY   87  65  47 CALM      30.11S HX  89
6HR MIN TEMP:  69; 6HR MAX TEMP:  87;

NW BLYTHEVILLE PTSUNNY   88  64  45 NW7       30.10F HX  89
$$

ARZ022-023-033-042-044-101900-
CENTRAL ARKANSAS

CITY           SKY/WX    TMP DP  RH WIND       PRES   REMARKS
LITTLE ROCK    PTSUNNY   87  69  54 S6        30.07F HX  91
6HR MIN TEMP:  73; 6HR MAX TEMP:  88;

N LITTLE ROCK  PTSUNNY   86  71  61 SE8       30.07F HX  91
6HR MIN TEMP:  74; 6HR MAX TEMP:  86;

JACKSONVILLE   MOSUNNY   86  71  60 E5        30.08F HX  91
6HR MIN TEMP:  71; 6HR MAX TEMP:  87; 6HR PCP: TRACE;

SEARCY         MOSUNNY   87  70  57 SE6       30.09F HX  92
6HR MIN TEMP:  71; 6HR MAX TEMP:  88;

HOT SPRINGS    PTSUNNY   84  72  67 SE6       30.07F HX  89
6HR MIN TEMP:  72; 6HR MAX TEMP:  86; 6HR PCP: TRACE;

RUSSELLVILLE   PTSUNNY   86  72  62 VRB7      30.05F HX  92
6HR MIN TEMP:  70; 6HR MAX TEMP:  87;

CLINTON        FAIR      88  72  58 CALM      30.09F HX  94
$$

ARZ036-101900-
EAST ARKANSAS

CITY           SKY/WX    TMP DP  RH WIND       PRES   REMARKS
WEST MEMPHIS   MOSUNNY   86  65  49 NW5       30.09F HX  88
6HR MIN TEMP:  71; 6HR MAX TEMP:  87;

$$

ARZ050-053-066-070-073-101900-
SOUTHWEST ARKANSAS

CITY           SKY/WX    TMP DP  RH WIND       PRES   REMARKS
ARKADELPHIA    FAIR      87  75  67 S8        30.06F HX  96
6HR MIN TEMP:  73; 6HR MAX TEMP:  87; 6HR PCP: TRACE;

CAMDEN         PTSUNNY   84  73  70 SW3       30.07F HX  91
TEXARKANA      MOSUNNY   90  69  50 SW8       30.06F HX  94
6HR MIN TEMP:  70; 6HR MAX TEMP:  91;

EL DORADO      LGT RAIN  80  76  87 S5        30.09F HX  86
6HR MIN TEMP:  71; 6HR MAX TEMP:  80; 6HR PCP:  0.18;

DE QUEEN       LGT RAIN  84  74  71 CALM      30.05F HX  91
6HR MIN TEMP:  72; 6HR MAX TEMP:  86; 6HR PCP: TRACE;

$$

ARZ056-057-069-101900-
SOUTHEAST ARKANSAS

CITY           SKY/WX    TMP DP  RH WIND       PRES   REMARKS
PINE BLUFF     PTSUNNY   86  72  62 SE6       30.08F HX  92
6HR MIN TEMP:  71; 6HR MAX TEMP:  87;

MONTICELLO     MOSUNNY   87  72  60 CALM      30.08F HX  93
6HR MIN TEMP:  74; 6HR MAX TEMP:  87; 6HR PCP: TRACE;


$$





USA.gov is the U.S. government's official web portal to all federal, state and local government web resources and services.